Location: Moscow
(55.7500°N, 37.5830°E)
Time: 07:20:36
(UTC+03:00)

A-11 Canister half - Pass Details

Date: 01 December 2021
Orbit: 1524 x 1684 km, 47.3° (Epoch: 17 January)

Event Time Altitude Azimuth Distance (km) Brightness Sun altitude
Exits shadow 05:24:58 32° 235° (SW) 2,590 9.7 -25.4°
Maximum altitude 05:29:41 53° 177° (S) 1,959 9.5 -24.7°
Drops below altitude 10° 05:39:04 10° 104° (ESE) 3,836 12.2 -23.4°
Sets 05:42:13 0° 100° (E) 4,799 13.1 -22.9°
